Location: Archemont
(49.1579°N, 1.7598°E)
Time: 09:11:06
(UTC+00:00)

Cosmos 2333 Rocket - Pass Details

Date: 03 February 2023
Orbit: 837 x 864 km, 70.8° (Epoch: 28 March)

Event Time Altitude Azimuth Distance (km) Brightness Sun altitude
Rises 18:11:44 0° 176° (S) 3,377 5.4 -13.2°
Reaches altitude 10° 18:14:23 10° 166° (SSE) 2,449 4.6 -13.6°
Maximum altitude 18:19:17 32° 105° (ESE) 1,416 2.9 -14.4°
Enters shadow 18:22:24 19° 57° (ENE) 1,912 3.5 -14.9°
